Location: Siratepeler Tepesi
(39.1042°N, 32.0781°E)
Time: 01:57:03
(UTC+00:00)

Cosmos 1340 Rocket - Pass Details

Date: 11 April 2026
Orbit: 484 x 513 km, 81.2° (Epoch: 13 May)

Event Time Altitude Azimuth Distance (km) Brightness Sun altitude
Rises 17:14:17 0° 195° (SSW) 2,549 6.2 -10.0°
Reaches altitude 10° 17:16:24 10° 198° (SSW) 1,669 5.3 -10.4°
Maximum altitude 17:20:02 63° 280° (W) 549 3.1 -11.1°
Drops below altitude 10° 17:23:40 10° 2° (N) 1,674 5.5 -11.7°
Sets 17:25:47 0° 6° (N) 2,557 6.4 -12.1°
